Tracking 19484 objects as of 20-Jan-2019
HD Live streaming from Space Station
objects crossing your sky now

H-2A DEB

Track H-2A DEB now!
10-day predictions


NORAD ID: 43675
Int'l Code: 2018-084E
Perigee: 597.6 km
Apogee: 623.4 km
Inclination: 97.9 °
Period: 96.8 minutes
Semi major axis: 6981 km
RCS: Unknown
Launch date: October 29, 2018
Source: Japan (JPN)
Launch site: TANEGASHIMA SPACE CENTER (TNSTA)

Note: This is SATELLITE DEBRIS
aabbcc
Your satellite tracking list
Your tracking list is empty




NASA's NSSDC Master Catalog

Two Line Element Set (TLE):
1 43675U 18084E   19020.25324412  .00000284  00000-0  36658-4 0  9997
2 43675  97.8516 135.0192 0018503  29.5464 330.6795 14.88261201 12358
Source of the keplerian elements: AFSPC